www.pogodaiklimat.ru

Погода и климат >> Архив погоды >> Финляндия >> Рованиеми


ПОГОДА в Рованиеми

  • Прогноз погоды в Рованиеми
  • Монитор погоды в Рованиеми

АРХИВ ПОГОДЫ в Рованиеми

Время (UTC), дата Ветер
(напр.,м/с)
 
Видим.   Явления Облачность Т
(С)
Тd
(С)
f
(%)
Тe
(С)
Тes
(С)
Комфортность P
(гПа)
Po
(гПа)
Тmin
(С)
Tmax
(С)
R
(мм)
R24
(мм)
S
(см)
01 11.09 Ю 2 25 км 9/9 200 м
[]
+14.1 +13.0 93 +14 +14 1017.7 1007.8
02 11.09 ЮВ 2 22 км 10/10 200 м
[]
+13.8 +12.8 94 +13 +13 1017.1 1007.1
03 11.09 ЮВ 2-3
{5}
24 км 9/9 600 м
[]
+13.4 +12.5 94 +13 +13 1016.4 1006.5
04 11.09 В 2 18 км 10/10 300 м
[]
+13.2 +12.4 95 +12 +12 1016.1 1006.2
05 11.09 В 1 6000 м дымка 10/10 100 м
[]
+13.5 +12.9 96 +14 +14 1015.6 1005.7
06 11.09 В 2-3
{3}
15 км {дымка} 9/9 100 м
[]
+14.1 +13.3 95 +14 +14 1015.1 1005.2 +13.1 +14.2
07 11.09 ЮВ 2-3
{4}
17 км 10/10 100 м
[]
+14.5 +13.5 94 +14 +14 1014.7 1004.8
08 11.09 В 1-4
{4}
16 км 9/9 200 м
[]
+15.4 +13.9 91 +16 +16 1014.2 1004.4
09 11.09 ЮВ 2-5
{5}
27 км 4/4 300 м
[]
+17.9 +13.9 77 +18 +21 1013.2 1003.5
10 11.09 ЮВ 2 18 км ясно +19.4 +14.0 71 +22 +26 комфорт 1012.8 1003.1
11 11.09 ЮВ 3 27 км 6/1 600 м
[]
+20.4 +13.3 64 +23 +25 комфорт 1011.9 1002.2
12 11.09 ЮВ 4-7
{7}
30 км 9/9
[]
+21.5 +12.7 57 +24 +24 комфорт 1010.8 1001.2
13 11.09 ЮВ 3 30 км 6/6
[]
+20.8 +13.0 61 +24 +25 комфорт 1010.1 1000.5
14 11.09 ЮВ 3 35 км 6/6 2000 м
[]
+21.3 +12.8 58 +24 +24 комфорт 1009.1 999.5
15 11.09 ЮВ 3-6
{8}
35 км 1/1 1500 м
[]
+19.9 +12.5 62 +22 +22 комфорт 1007.9 998.2
16 11.09 Ю 4 8000 м ливневой дождь 9/9 600 м
[]
+15.1 +13.0 87 +14 +14 1008.0 998.2
17 11.09 ЮЗ 3-4
{5}
6000 м сильн. ливневой дождь 9/9 600 м
[]
+15.2 +14.0 93 +14 +14 1007.6 997.8
18 11.09 Ю 3-5
{5}
30 км в посл. час дождь {ливн. осадки} 1/1 1000 м
[]
+15.1 +13.4 90 +14 +14 1007.4 997.6 +14.1 +21.9
19 11.09 Ю 2-3
{5}
25 км 4/0 2000 м
[]
+14.3 +13.1 92 +14 +14 1006.9 997.1
20 11.09 Ю 1-3
{3}
13 км слаб. дождь 4/4 600 м
[]
+13.8 +12.8 94 +14 +14 1006.7 996.9
21 11.09 Ю 2-3
{6}
23 км в посл. час дождь {ливн. осадки} 9/9 300 м
[]
+13.7 +12.9 95 +13 +13 1006.3 996.5
22 11.09 ЮВ 2 27 км 10/1 1000 м
[]
+13.5 +12.7 95 +13 +13 1005.6 995.8
23 11.09 ЮВ 2 30 км 10/10 600 м
[]
+13.3 +12.5 95 +12 +12 1005.0 995.2
00 12.09 ЮВ 2-4
{4}
45 км {ливн. осадки, дождь} 10/10 600 м
[]
+13.4 +11.9 91 +13 +13 1004.6 994.8
01 12.09 ЮВ 2-5
{5}
45 км 10/10 600 м
[]
+13.1 +11.6 91 +12 +12 1004.1 994.3
02 12.09 Ю 1-3
{5}
50 км 10/10 600 м
[]
+13.0 +11.4 90 +13 +13 1003.7 993.9
03 12.09 ЮВ 2-4
{4}
40 км 10/10 300 м
[]
+12.9 +11.7 92 +12 +12 1003.1 993.3
04 12.09 ЮВ 2 6000 м слаб. ливневой дождь 10/10 200 м
[]
+12.6 +12.2 97 +12 +12 1002.7 992.9
05 12.09 ЮВ 3-4
{5}
13 км слаб. ливневой дождь 10/10 200 м
[]
+12.8 +12.3 97 +11 +11 1002.2 992.4
06 12.09 Ю 3-5
{5}
29 км {ливн. осадки, дождь} 10/10 100 м
[]
+13.2 +12.5 96 +12 +12 1001.9 992.1 +12.5 +15.1
07 12.09 Ю 2 35 км слаб. ливневой дождь 9/9 100 м
[]
+13.4 +12.8 96 +13 +13 1001.5 991.7
08 12.09 ЮЗ 4 35 км слаб. ливневой дождь 9/9 300 м
[]
+13.6 +12.3 92 +12 +12 1001.4 991.6
09 12.09 Ю 4-6
{7}
40 км в посл. час осадки {ливн. осадки} 9/6 300 м
[]
+14.5 +12.5 88 +13 +14 1001.1 991.4
10 12.09 Ю 3-7
{7}
23 км слаб. ливневой дождь 9/9 300 м
[]
+13.9 +12.6 92 +13 +13 1000.7 991.0
11 12.09 Ю 3 23 км морось 10/10 300 м
[]
+13.6 +12.4 92 +12 +12 1000.1 990.4
12 12.09 Ю 3-7
{9}
5000 м слаб. ливневой дождь 9/9 200 м
[]
+13.5 +12.7 95 +12 +12 999.3 989.5
13 12.09 Ю 4 35 км слаб. дождь 9/9 200 м
[]
+13.9 +12.5 91 +12 +13 999.1 989.3
14 12.09 Ю 4 40 км в посл. час дождь 9/9 300 м
[]
+13.8 +12.4 91 +12 +12 998.7 989.0
15 12.09 ЮЗ 4-7
{8}
40 км {ливн. осадки, дождь} 4/4 300 м
[]
+13.6 +11.9 89 +12 +12 998.7 988.9
16 12.09 ЮЗ 4 50 км 9/9 300 м
[]
+13.4 +11.7 89 +12 +12 998.7 988.9
17 12.09 ЮЗ 3-4
{6}
35 км в посл. час дождь 9/1 1500 м
[]
+12.8 +12.2 96 +11 +11 999.0 989.2
18 12.09 ЮЗ 3 35 км {ливн. осадки, дождь} 9/9 100 м
[]
+12.5 +12.0 97 +11 +11 999.0 989.2 +12.5 +14.6
19 12.09 ЮЗ 4 30 км 9/9 50 м
[]
+12.5 +12.1 97 +10 +10 998.9 989.1
20 12.09 ЮЗ 2 35 км 9/9 100 м
[]
+12.0 +11.5 97 +11 +11 998.9 989.1
21 12.09 ЮЗ 2-2
{3}
50 км 10/1 1000 м
[]
+11.8 +11.0 95 +11 +11 998.8 989.0
22 12.09 ЮЗ 2 50 км 9/4 1500 м
[]
+11.4 +10.2 92 +10 +10 998.9 989.1
23 12.09 ЮЗ 2 50 км 4/4 2000 м
[]
+10.2 +9.1 93 +9 +9 998.9 989.0
00 13.09 ЮЗ 3-4
{5}
50 км 4/1
[]
+9.1 +8.2 94 +7 +7 998.9 989.0
01 13.09 З 1 50 км 9/0
[]
+8.2 +7.7 97 +7 +7 998.8 988.9
02 13.09 ЮЗ 2-3
{3}
50 км 9/0
[]
+8.1 +7.5 96 +6 +6 998.8 988.9
03 13.09 З 2-2
{3}
50 км 4/1 1500 м
[]
+7.5 +7.2 98 +5 +5 998.7 988.8
04 13.09 З 1 50 км 6/1 1000 м
[]
+7.6 +7.2 97 +7 +7 998.6 988.7
05 13.09 З 1 45 км 9/6 1500 м
[]
+8.3 +7.8 97 +7 +7 998.5 988.5
06 13.09 ЮЗ 2-3
{3}
45 км слаб. морось {дождь} 9/6 1000 м
[]
+9.0 +7.8 92 +7 +7 998.7 988.8 +7.4 +12.6
07 13.09 Ю 2-3
{4}
45 км слаб. ливневой дождь 9/4 1500 м
[]
+9.2 +8.4 95 +7 +8 998.6 988.7
08 13.09 ЮЗ 3-4
{4}
35 км 9/6 1500 м
[]
+10.3 +8.3 87 +8 +9 998.6 988.7
09 13.09 З 4-5
{5}
45 км слаб. ливневой дождь 9/9 200 м
[]
+10.9 +8.9 87 +8 +9 999.0 989.1
10 13.09 З 4 45 км в посл. час дождь 9/9 200 м
[]
+10.9 +8.9 87 +8 +9 999.2 989.3
11 13.09 ЮЗ 4 45 км 9/9 300 м
[]
+11.4 +8.7 83 +9 +9 999.4 989.6
12 13.09 З 4-6
{7}
45 км {ливн. осадки, дождь} 1/1 600 м
[]
+11.5 +7.4 76 +9 +11 999.5 989.7
13 13.09 СЗ 2 30 км слаб. ливневой дождь 9/9 300 м
[]
+10.3 +8.6 89 +9 +9 999.9 990.1
14 13.09 СЗ 2 50 км в посл. час дождь 9/9 1000 м
[]
+10.2 +6.6 78 +9 +9 1000.3 990.5
15 13.09 СЗ 2-3
{4}
50 км {ливн. осадки, дождь} 10/10 1000 м
[]
+9.9 +6.6 80 +8 +8 1000.6 990.7
16 13.09 СЗ 2 50 км 10/10 1000 м
[]
+9.6 +6.7 82 +8 +8 1000.9 991.0
17 13.09 СЗ 2 45 км слаб. ливневой дождь 10/10 600 м
[]
+8.9 +6.9 87 +7 +7 1001.4 991.5
18 13.09 СЗ 3-9
{9}
15 км слаб. ливневой дождь 10/10 600 м
[]
+8.2 +6.6 90 +5 +5 1002.0 992.0 +8.2 +12.6
19 13.09 СЗ 2-5
{5}
14 км слаб. дождь 10/10 600 м
[]
+7.9 +6.9 93 +6 +6 1002.1 992.1
20 13.09 З 2-3
{5}
30 км морось 9/9 600 м
[]
+7.9 +7.4 97 +6 +6 1002.4 992.4
21 13.09 СЗ 3-6
{6}
50 км слаб. морось {дождь} 10/6 600 м
[]
+7.5 +6.4 93 +5 +5 1002.8 992.8
22 13.09 С 2 50 км слаб. ливневой дождь 9/9 600 м
[]
+7.4 +6.5 94 +5 +5 1003.4 993.4
23 13.09 СЗ 3 50 км 9/6 600 м
[]
+7.1 +6.2 94 +4 +4 1004.0 994.0
00 14.09 СЗ 2-5
{5}
50 км {ливн. осадки, дождь} 9/1 1000 м
[]
+6.6 +5.6 93 +4 +4 1004.7 994.7
01 14.09 СЗ 2 50 км 9/6 2000 м
[]
+6.0 +5.0 93 +3 +3 1005.2 995.1
02 14.09 СЗ 2-4
{5}
50 км 9/1
[]
+5.4 +4.4 93 +3 +3 1005.9 995.8
03 14.09 СЗ 2-5
{5}
50 км 1/0
[]
+4.7 +3.8 94 +2 +2 1006.4 996.3
04 14.09 СЗ 2 50 км 1/0
[]
+4.1 +3.3 95 +1 +1 1006.9 996.7
05 14.09 СЗ 2 50 км ясно +3.9 +3.0 94 +1 +1 1007.3 997.2
06 14.09 С 2-4
{5}
50 км 1/1
[]
+5.4 +3.5 88 +3 +4 1007.8 997.6 +3.9 +8.2
07 14.09 СЗ 2-5
{5}
45 км 9/0
[]
+7.1 +4.7 85 +5 +6 1008.0 998.0
08 14.09 СЗ 2 40 км 9/9
[]
+7.0 +4.0 81 +5 +5 1008.5 998.5
09 14.09 СЗ 2-3
{4}
35 км 1/1
[]
+8.8 +3.7 70 +7 +10 1008.7 998.7
10 14.09 С 2 50 км 4/4
[]
+9.2 +3.3 67 +8 +10 1008.9 998.9
11 14.09 СЗ 2 45 км 4/4
[]
+9.6 +3.2 64 +8 +11 1009.0 999.0
12 14.09 ЮЗ 2-3
{5}
40 км 6/4 600 м
[]
+11.6 +3.5 58 +11 +12 1009.0 999.1
13 14.09 З 1-5
{5}
40 км 9/9 1000 м
[]
+12.1 +2.4 51 +12 +13 1008.9 999.0
14 14.09 З 3 45 км 6/6 1000 м
[]
+10.7 +2.2 56 +9 +10 1009.2 999.3
15 14.09 З 2-3
{5}
50 км 4/4 1000 м
[]
+10.9 +1.7 53 +10 +10 1009.1 999.1
16 14.09 З 2 50 км ясно +9.9 +2.9 62 +9 +9 1009.0 999.1
17 14.09 СЗ 1-1
{1}
50 км ясно +7.8 +4.1 77 +7 +7 1008.8 998.7
18 14.09 В 1-1
{1}
35 км ясно +5.6 +4.5 93 +4 +4 1008.5 998.4 +5.4 +12.8
19 14.09 штиль 0 40 км ясно +5.4 +4.5 94 +4 +4 1008.3 998.1
20 14.09 З 1-1
{3}
30 км ясно +3.5 +3.0 97 +2 +2 1008.2 998.0
21 14.09 В 1-2
{2}
28 км ясно +3.4 +3.1 98 +2 +2 1007.5 997.3
22 14.09 СВ 1 28 км 1/1 <50 м
[]
+2.8 +2.6 99 +1 +1 1007.1 996.9
23 14.09 СВ 1 50 км 1/1 <50 м
[]
+2.6 +2.3 98 +1 +1 1006.7 996.4
00 15.09 В 1-2
{2}
50 км в посл. час туман ясно +2.0 +1.8 99 0 0 1005.9 995.7
01 15.09 В 1 50 км ясно +2.1 +1.9 99 0 0 1005.2 995.0
02 15.09 В 2 50 км 1/1 50 м
[]
+2.1 +1.6 96 -1 -1 1004.2 994.0
03 15.09 В 2-4
{4}
50 км {метель} 6/4 600 м
[]
+2.4 +1.9 96 -1 -1 1003.0 992.8
04 15.09 В 2-4
{5}
50 км 9/9 50 м
[]
+2.2 +1.8 97 -1 -1 1002.2 992.0
05 15.09 В 3-6
{6}
50 км 6/1 1000 м
[]
+2.8 +2.1 95 -1 -1 1001.1 990.9
06 15.09 В 3-6
{7}
45 км в посл. час дождь {ливн. осадки} 10/10 1000 м
[]
+3.8 +3.1 95 -0 -0 1000.0 989.9 +1.7 +6.2
07 15.09 В 4 50 км 9/9 1500 м
[]
+4.9 +3.8 93 +1 +1 999.2 989.2
08 15.09 В 4 40 км 1/1
[]
+6.8 +5.1 89 +3 +5 998.2 988.3
09 15.09 В 4-7
{7}
50 км {метель} 4/4 1000 м
[]
+8.7 +5.4 80 +6 +7 997.2 987.3
10 15.09 В 3 45 км 9/9 600 м
[]
+10.0 +5.6 74 +8 +8 996.5 986.6
11 15.09 В 4 45 км 4/4 600 м
[]
+10.0 +4.6 69 +7 +9 995.8 986.0
12 15.09 В 4-9
{9}
45 км {метель} 6/1 600 м
[]
+10.5 +4.7 67 +8 +10 995.1 985.3
13 15.09 В 3-7
{9}
40 км 4/1 600 м
[]
+10.8 +3.3 60 +9 +11 994.4 984.7
14 15.09 В 3-6
{8}
45 км 9/0 1000 м
[]
+10.4 +2.2 57 +9 +9 994.0 984.2
15 15.09 СВ 3-6
{7}
50 км 9/9 1500 м
[]
+9.9 +2.3 59 +8 +8 993.5 983.7
16 15.09 В 3 50 км 6/6 1500 м
[]
+9.5 +2.6 62 +7 +7 993.2 983.4
17 15.09 СВ 4-6
{8}
50 км 4/1 1500 м
[]
+8.1 +2.3 67 +5 +5 993.3 983.5
18 15.09 СВ 3-5
{6}
50 км 6/6
[]
+6.6 +1.7 71 +4 +4 993.2 983.2 +3.8 +11.4
19 15.09 СВ 3 50 км ясно +5.8 +1.1 72 +3 +3 993.2 983.3
20 15.09 СВ 4 50 км ясно +5.0 +0.8 74 +1 +1 993.2 983.3
21 15.09 СВ 3-6
{7}
50 км ясно +4.4 +0.9 78 +1 +1 993.5 983.5
22 15.09 СВ 2-3
{6}
45 км ясно +4.0 +0.9 80 +1 +1 993.7 983.6
23 15.09 СВ 2 50 км ясно +3.1 +0.8 85 0 0 993.9 983.8
00 16.09 С 2-4
{5}
50 км ясно +2.5 +0.7 88 -1 -1 994.2 984.1
01 16.09 С 1-2
{4}
50 км ясно +2.0 +0.8 92 0 0 994.2 984.1
02 16.09 С 2-3
{3}
45 км ясно +1.4 +0.4 93 -2 -2 994.3 984.2
03 16.09 С 2-4
{4}
45 км ясно +0.9 +0.1 94 -3 -3 994.3 984.2
04 16.09 С 3 45 км 1/1 300 м
[]
+1.7 +0.7 93 -3 -3 994.0 983.9
05 16.09 С 2 45 км 1/1 1000 м
[]
+2.0 +1.1 94 -1 -1 993.9 983.8
06 16.09 С 2-4
{6}
40 км 10/10 1000 м
[]
+2.8 +1.5 91 -0 -0 994.0 983.9 +0.8 +6.6
07 16.09 СЗ 2-4
{5}
40 км 9/9 600 м
[]
+3.6 +1.8 88 +1 +1 993.9 983.9
08 16.09 С 2-5
{6}
40 км 10/10 300 м
[]
+5.1 +2.5 83 +3 +3 994.0 984.0
09 16.09 С 3-6
{7}
13 км 10/10 300 м
[]
+5.8 +3.6 86 +2 +2 994.3 984.3
10 16.09 С 3-5
{6}
35 км 10/10 100 м
[]
+5.6 +4.1 90 +2 +2 994.6 984.6
11 16.09 С 2 8000 м морось 10/10 200 м
[]
+5.9 +4.6 91 +3 +3 995.0 985.0
12 16.09 СЗ 3-5
{6}
3500 м морось {ливн. осадки} 10/10 100 м
[]
+6.2 +5.5 95 +3 +3 995.2 985.2
13 16.09 СЗ 2 35 км в посл. час морось 10/10 300 м
[]
+6.9 +5.7 92 +5 +5 995.5 985.5
14 16.09 С 2 50 км 10/10 600 м
[]
+7.8 +6.1 89 +6 +6 995.5 985.6
15 16.09 С 1-2
{5}
45 км {морось, метель} 9/6 1000 м
[]
+8.5 +5.5 81 +8 +8 995.7 985.8
16 16.09 СЗ 1 40 км 9/4 1000 м
[]
+8.2 +5.5 83 +7 +7 995.8 985.9
17 16.09 С 1 50 км 6/4 1000 м
[]
+6.9 +4.3 83 +6 +6 995.9 986.0
18 16.09 С 1-2
{3}
50 км {морось, метель} 9/1 1000 м
[]
+6.0 +3.9 86 +5 +5 996.1 986.2 +2.8 +8.6
19 16.09 СВ 2-3
{4}
50 км 6/0 1500 м
[]
+6.2 +4.1 86 +4 +4 996.3 986.3
20 16.09 С 1-2
{3}
50 км 1/0 1000 м
[]
+4.5 +3.5 93 +3 +3 996.6 986.5
21 16.09 С 1-3
{3}
50 км 9/9 600 м
[]
+5.1 +3.8 91 +4 +4 996.8 986.8
22 16.09 С 1 40 км морось 9/9 600 м
[]
+5.1 +4.0 93 +4 +4 996.9 986.9
23 16.09 С 1-3
{4}
50 км в посл. час морось 9/9 600 м
[]
+4.9 +4.0 94 +3 +3 997.0 987.0
00 17.09 С 1-3
{3}
50 км {ливн. осадки, морось} 10/10 600 м
[]
+5.3 +4.3 93 +4 +4 997.2 987.2
01 17.09 С 2-3
{3}
50 км 10/10 600 м
[]
+5.3 +4.5 95 +3 +3 997.3 987.3
02 17.09 С 1-2
{4}
50 км 10/10 600 м
[]
+5.4 +4.7 95 +4 +4 997.5 987.5
03 17.09 С 1 35 км 10/4 600 м
[]
+5.8 +4.9 94 +4 +4 997.5 987.5
04 17.09 С 1 35 км 10/1 600 м
[]
+5.7 +5.0 95 +4 +4 997.7 987.7
05 17.09 СВ 2 35 км 10/9 600 м
[]
+6.5 +5.3 92 +4 +4 998.0 988.0
06 17.09 СВ 3-5
{5}
40 км {ливн. осадки, морось} 9/4 1000 м
[]
+7.0 +5.2 88 +4 +4 998.4 988.5 +4.3 +7.0
07 17.09 СВ 3-5
{6}
40 км 9/1 300 м
[]
+7.4 +5.0 85 +5 +5 999.0 989.0
08 17.09 СВ 2-5
{5}
40 км 9/9 300 м
[]
+7.8 +5.0 82 +6 +6 999.4 989.5
09 17.09 СВ 3-5
{7}
24 км слаб. ливневой дождь 9/9 100 м
[]
+6.7 +5.1 90 +4 +4 1000.3 990.3
10 17.09 СВ 2 45 км 9/6 600 м
[]
+7.4 +5.1 85 +5 +6 1000.6 990.6
11 17.09 СВ 3 40 км 10/10 600 м
[]
+7.9 +3.6 74 +5 +5 1001.2 991.2
12 17.09 СВ 3-5
{7}
35 км {ливн. осадки, дождь} 9/1 600 м
[]
+7.8 +2.3 68 +5 +6 1001.7 991.7
13 17.09 СВ 3-5
{6}
45 км 9/6 600 м
[]
+7.9 +2.1 67 +5 +6 1001.9 991.9
14 17.09 СВ 2 45 км 6/4 1000 м
[]
+7.6 +1.4 65 +6 +6 1002.3 992.3
15 17.09 СВ 2-3
{4}
45 км 4/4 1000 м
[]
+7.8 +1.6 65 +6 +6 1002.4 992.4
16 17.09 С 2 50 км 1/1 1000 м
[]
+7.0 +1.0 66 +5 +5 1002.8 992.8
17 17.09 С 2-4
{4}
50 км ясно +5.0 +1.0 75 +3 +3 1003.4 993.3
18 17.09 СВ 1-2
{3}
40 км ясно +3.4 +1.0 84 +2 +2 1003.9 993.7 +3.4 +8.3
19 17.09 СВ 2 45 км ясно +2.7 +0.9 88 -1 -1 1004.2 994.0
20 17.09 С 2 50 км ясно +2.6 +0.5 86 -1 -1 1004.7 994.5
21 17.09 С 2-4
{4}
50 км 6/0
[]
+2.5 +0.2 85 -1 -1 1005.4 995.2
22 17.09 С 2 50 км 9/0
[]
+2.4 +0.3 86 -1 -1 1005.7 995.5
23 17.09 С 2 50 км 6/0
[]
+2.5 +0.4 86 -1 -1 1006.0 995.8
00 18.09 С 2-4
{4}
50 км 1/0
[]
+1.9 +0.2 88 -1 -1 1006.5 996.2

 

Местоположение метеостанции Рованиеми (Финляндия): широта 66.50 долгота 25.71 высота над уровнем моря 85 м.

В архиве по умолчанию представлена погода в Рованиеми за последнюю неделю. Архивные данные за месяц целиком и за предыдущие месяцы, начиная с января 2011 года, Вы можете получить, выбрав интересующий диапазон дат из раскрывающегося списка и нажав кнопку "Ввод!".


*Определитесь, кто Вы:
робот инопланетянин человек

Внимание! Время в таблицах - всемирное. Для получения местного времени необходимо прибавить поправку, которая равна 1 ч.

Смотрите также архив погоды в соседних городах и на ближайших метеорологических станциях:

Погода в Рованиеми аэропорту (Финляндия) (8 км)
Погода в Рованиеми Апукка (Финляндия) (16 км)
Погода в Мелтосярви (Финляндия) (47 км)
Погода в Аэропорту Рануа (Финляндия) (66 км)
Погода на Аэродроме Кемиярви (Финляндия) (69 км)
Погода в Пелло (Финляндия) (83 км)
Погода в Пюхе (Финляндия) (88 км)
Погода в Кеми аэропорту (Финляндия) (95 км)
Погода в Йлинярви (Швеция) (100 км)
Погода в Торнио (Финляндия) (100 км)

Пояснения к столбцам:

Ветер - указаны скорость ветра в м/с - средняя за 10 мин, порывы в срок и между сроками (в фигурных скобках) и направление, откуда дует ветер: С - северный, СВ - северо-восточный, В - восточный, ЮВ - юго-восточный, Ю - южный, ЮЗ - юго-западный, З - западный, СЗ - северо-западный.
Видимость - горизонтальная дальность видимости в метрах или километрах. При видимости от 1 до 10 км при отсутствии осадков обычно наблюдается дымка, при ухудшении видимости до 1 км и менее - туман. В сухую погоду видимость может ухудшаться дымом, пылью или мглою.
Явления - указаны атмосферные явления, наблюдавшиеся в срок или в последний час перед сроком; фигурными скобками обозначены явления, наблюдавшиеся между сроками (за 1-3 часа до срока); квадратными скобками обозначены град или гололедные отложения с указанием их диаметра в мм.
Облачность - указаны через наклонную черту общая и нижняя облачность в баллах и высота нижней границы облаков в метрах; квадратными скобками обозначены формы облаков: Ci - перистые, Cs - перисто-слоистые, Cc - перисто-кучевые, Ac - высококучевые, As - высокослоистые, Sc - слоисто-кучевые, Ns - слоисто-дождевые, Cu - кучевые, Cb - кучево-дождевые. Подробнее классификацию облаков см. в Атласе облаков (PDF).
T - Температура воздуха - температура, измеренная на высоте 2 м над землей.
Td - Температура точки росы - температура, при понижении до которой содержащийся в воздухе водяной пар достигнет насыщения.
f - Относительная влажность воздуха - влажноcть воздуха, измеренная на высоте 2 м над землей.
Te - Эффективная температура - температура, которую ощущает одетый по сезону человек в тени. Характеристика душности погоды. При расчете учитывается влияние влажности воздуха и скорости ветра на теплоощущения человека.
Tes - Эффективная температура на солнце - температура, которую ощущает человек, с поправкой на солнечный нагрев. Характеристика знойности погоды. Зависит от высоты солнца над горизонтом, облачности и скорости ветра. Ночью, в пасмурную погоду, а также при ветре 12 м/с и более поправка равна нулю.
P - Атмосферное давление - приведенное к уровню моря атмосферное давление.
Po - Атмосферное давление - измеренное на уровне метеостанции атмосферное давление.
Tmin - Минимальная температура - минимум температуры воздуха на высоте 2 м над землей.
Tmax - Максимальная температура - максимум температуры воздуха на высоте 2 м над землей.
R - Количество осадков - Количество выпавших осадков за период времени, мм. При наведении курсора мыши на число - период времени, за который выпало указанное количество осадков.
R24 - Количество осадков - Количество выпавших осадков за 24 часа, мм.
S - Снежный покров - Высота снежного покрова, см. При наведении курсора мыши на число - состояние снежного покрова и степень покрытия местности в баллах.